Weather History for Louisville, KY

Change the Weather History Date:

Wednesday, November 14, 2012

  Actual Average Record
Temperature  
Mean Temperature 40 °F 49 °F  
Max Temperature 49 °F 59 °F 79 °F (1902)
Min Temperature 30 °F 40 °F 15 °F (1986)
Degree Days  
Heating Degree Days 25 16  
Month to date heating degree days 245 185  
Since 1 July heating degree days 535 427  
Cooling Degree Days 0 0  
Month to date cooling degree days 0 0  
Year to date cooling degree days 1948 1609  
Moisture  
Dew Point 27 °F    
Average Humidity 62    
Maximum Humidity 78    
Minimum Humidity 45    
Precipitation  
Precipitation 0.00 in 0.13 in 1.44 in (1929)
Month to date precipitation 0.67 1.54  
Year to date precipitation 38.46 39.03  
Snow  
Snow 0.00 in 0.00 in 2.90 in (1906)
Month to date snowfall 0.0 0.0  
Since 1 July snowfall 0.0 0.1  
Since 1 September snowfall 0.0 0.1  
Snow Depth 0.00 in    
Sea Level Pressure  
Sea Level Pressure 30.45 in    
Wind  
Wind Speed 5 mph (NE)    
Max Wind Speed 12 mph    
Max Gust Speed 15 mph    
Visibility 10 miles    
Events      
T = Trace of Precipitation, MM = Missing Value Source: NWS Daily Summary

Daily Weather History Graph

Daily Weather History Graph

Search for Another Location

Airport:

Trip Planner

Search our weather history database for the weather conditions in past years. The results will help you decide how hot, cold, wet, or windy it might be!

Date:

Astronomy

Nov. 14, 2012 Rise Set
Actual Time 7:23 AM EST 5:31 PM EST
Civil Twilight 6:55 AM EST 5:59 PM EST
Nautical Twilight 6:23 AM EST 6:31 PM EST
Astronomical Twilight 5:52 AM EST 7:02 PM EST
Moon 8:11 AM EST (11/14) 6:19 PM EST (11/14)
Length of Visible Light 11h 03m
Length of Day
10h 07m
New Moon, 1% of the Moon is Illuminated
Nov 14
New Moon
Nov 20
First Quarter
Nov 28
Full
Dec 6
Last Quarter
Dec 13
New

Hourly Weather History & Observations

Time (EST) Temp. Windchill Dew Point Humidity Pressure Visibility Wind Dir Wind Speed Gust Speed Precip Events Conditions
12:56 AM 36.0 °F 32.1 °F 24.1 °F 62% 30.49 in 10.0 mi Variable 4.6 mph - N/A   Clear
1:56 AM 34.0 °F 31.0 °F 24.1 °F 67% 30.48 in 10.0 mi ENE 3.5 mph - N/A   Clear
2:56 AM 30.9 °F 25.2 °F 24.1 °F 76% 30.49 in 10.0 mi NNW 5.8 mph - N/A   Clear
3:56 AM 30.0 °F 25.2 °F 25.0 °F 82% 30.50 in 10.0 mi NNW 4.6 mph - N/A   Scattered Clouds
4:56 AM 32.0 °F 25.6 °F 25.0 °F 75% 30.49 in 10.0 mi North 6.9 mph - N/A   Mostly Cloudy
5:56 AM 30.0 °F 26.5 °F 25.0 °F 82% 30.50 in 10.0 mi North 3.5 mph - N/A   Mostly Cloudy
6:56 AM 30.9 °F 27.5 °F 25.0 °F 79% 30.50 in 10.0 mi NNE 3.5 mph - N/A   Mostly Cloudy
7:56 AM 32.0 °F 28.7 °F 25.0 °F 75% 30.49 in 10.0 mi NE 3.5 mph - N/A   Mostly Cloudy
8:56 AM 35.6 °F 32.8 °F 26.6 °F 70% 30.50 in 10.0 mi ENE 3.5 mph - N/A   Mostly Cloudy
9:56 AM 37.9 °F 35.5 °F 26.1 °F 62% 30.52 in 10.0 mi ENE 3.5 mph - N/A   Overcast
10:56 AM 42.1 °F 37.7 °F 27.0 °F 55% 30.51 in 10.0 mi ENE 6.9 mph - N/A   Overcast
11:56 AM 44.1 °F 39.5 °F 27.0 °F 51% 30.48 in 10.0 mi NE 8.1 mph - N/A   Overcast
12:56 PM 46.0 °F 41.4 °F 27.0 °F 47% 30.44 in 10.0 mi East 9.2 mph - N/A   Overcast
1:56 PM 46.0 °F 41.4 °F 27.0 °F 47% 30.43 in 10.0 mi NE 9.2 mph - N/A   Overcast
2:56 PM 46.0 °F 43.9 °F 28.0 °F 50% 30.40 in 10.0 mi ENE 4.6 mph - N/A   Overcast
3:56 PM 46.9 °F - 28.0 °F 48% 30.39 in 10.0 mi ENE 9.2 mph - N/A   Overcast
4:56 PM 46.0 °F 44.8 °F 27.0 °F 47% 30.40 in 10.0 mi ENE 3.5 mph - N/A   Mostly Cloudy
5:56 PM 44.1 °F 40.8 °F 28.9 °F 55% 30.40 in 10.0 mi North 5.8 mph - N/A   Overcast
6:56 PM 43.0 °F 39.5 °F 28.0 °F 56% 30.40 in 10.0 mi NE 5.8 mph - N/A   Mostly Cloudy
7:56 PM 41.0 °F 37.1 °F 28.0 °F 60% 30.40 in 10.0 mi East 5.8 mph - N/A   Scattered Clouds
8:56 PM 39.0 °F 35.7 °F 28.0 °F 65% 30.39 in 10.0 mi ENE 4.6 mph - N/A   Partly Cloudy
9:56 PM 39.0 °F 35.7 °F 28.0 °F 65% 30.38 in 10.0 mi ENE 4.6 mph - N/A   Clear
10:56 PM 36.0 °F 33.3 °F 28.0 °F 73% 30.38 in 10.0 mi North 3.5 mph - N/A   Clear
11:56 PM 36.0 °F - 28.0 °F 73% 30.38 in 10.0 mi Calm Calm - N/A   Clear